Home   Weather   Camrose   Past weeks

Flag for Canada Past Weather in Camrose, Alberta, Canada — Yesterday and Last 2 Weeks

Now
19 °F

Light snow. Partly cloudy.


Feels Like: 10 °F
Forecast: 2 / 18 °F
Wind: 7 mph from North

Location: Edmonton International

Current Time: Feb 24, 2017 at 5:54:53 am

Latest Report: Feb 24, 2017 at 5:00 am


Visibility: 8 mi

Pressure: 30.20 "Hg (27.45 "Hg at 744m altitude)

Humidity: 93%

Dew Point: 18 °F

Location of CamroseLocation

Past Weather in Camrose — Graph

°F

Camrose Temperature Yesterday

Maximum temperature yesterday: 27 °F (at 2:00 pm)
Minimum temperature yesterday: 16 °F (at 12:00 am)
Average temperature yesterday: 22 °F

High & Low Weather Summary for the Past Weeks

 TemperatureHumidityPressure
High52 °F (Feb 15, 2:00 pm)100% (Feb 18, 9:44 pm)30.24 "Hg (Feb 18, 9:44 pm)
Low-8 °F (Feb 10, 7:00 am)47% (Feb 11, 11:00 am)29.07 "Hg (Feb 16, 1:00 pm)
Average28 °F76%29.75 "Hg
* Reported Feb 9 4:00 am — Feb 24 4:41 am, Camrose, Weather by CustomWeather, © 2017

Note: Actual official high and low records may vary slightly from our data, if they occured in-between our weather recording intervals... More about our weather records

Advertising

Camrose Weather History for the Previous 24 Hours

Scroll right to see more
 ConditionsComfort  
Time TempWeatherWind HumidityBarometerVisibility
4:41 am
Fri, Feb 24
19 °FLight snow. Mostly cloudy.6 mph86%30.20 "Hg7 mi
4:00 am18 °FLight snow. Ice fog.6 mph93%30.19 "Hg6 mi
3:57 am18 °FLight snow. Ice fog.5 mph93%30.19 "Hg6 mi
3:00 am16 °FSnow flurries. Passing clouds.5 mph93%30.18 "Hg8 mi
2:00 am18 °FSnow flurries. Partly cloudy.2 mph86%30.17 "Hg12 mi
1:40 am18 °FSnow flurries. Partly cloudy.No wind93%30.17 "Hg12 mi
1:00 am19 °FOvercast.No wind86%30.16 "Hg15 mi
12:00 am19 °FMostly cloudy.2 mph86%30.16 "Hg15 mi
11:00 pm
Thu, Feb 23
21 °FMostly cloudy.5 mph80%30.15 "Hg15 mi
10:36 pm21 °FMostly cloudy.6 mph80%30.15 "Hg15 mi
10:00 pm21 °FSnow flurries. Mostly cloudy.3 mph80%30.15 "Hg15 mi
9:37 pm21 °FSnow flurries. Mostly cloudy.6 mph80%30.15 "Hg5 mi
9:00 pm21 °FMostly cloudy.8 mph80%30.14 "Hg15 mi
8:00 pm19 °FPartly cloudy.5 mph79%30.15 "Hg15 mi
7:00 pm19 °FPartly cloudy.6 mph79%30.15 "Hg15 mi
6:00 pm23 °FPartly cloudy.9 mph74%30.13 "Hg15 mi
5:00 pm27 °FBroken clouds.9 mph64%30.13 "Hg15 mi
4:00 pm27 °FBroken clouds.6 mph59%30.14 "Hg15 mi
3:00 pm27 °FPartly sunny.6 mph59%30.15 "Hg15 mi
2:00 pm27 °FPartly sunny.2 mph59%30.16 "Hg15 mi
1:00 pm25 °FPartly sunny.7 mph63%30.18 "Hg15 mi
12:00 pm25 °FBroken clouds.6 mph63%30.19 "Hg15 mi
11:00 am25 °FBroken clouds.5 mph69%30.21 "Hg15 mi
10:00 am23 °FMore clouds than sun.6 mph74%30.21 "Hg15 mi
9:12 am23 °FLight snow. Mostly cloudy.6 mph80%30.22 "Hg15 mi
9:00 am23 °FMostly cloudy.6 mph80%30.22 "Hg15 mi
8:00 am21 °FMostly cloudy.5 mph80%30.21 "Hg15 mi
7:00 am21 °FPassing clouds.6 mph80%30.20 "Hg15 mi
6:00 am21 °FPassing clouds.8 mph80%30.20 "Hg15 mi
5:00 am21 °FPassing clouds.7 mph86%30.20 "Hg15 mi
Weather by CustomWeather, © 2017

See weather overviewHow to use our weather pages